Tracking 19242 objects as of 15-Aug-2018
HD Live streaming from Space Station
objects crossing your sky now

URSA MAIOR

Track URSA MAIOR now!
10-day predictions
URSA MAIOR is classified as:


NORAD ID: 42776
Int'l Code: 2017-036M
Perigee: 501.2 km
Apogee: 519.2 km
Inclination: 97.4 °
Period: 94.7 minutes
Semi major axis: 6881 km
RCS: Unknown
Launch date: June 23, 2017
Source: Italy (IT)
Launch site: SRIHARIKOTA (SRI)
Uplink (MHz):
Downlink (MHz): 435.950
Beacon (MHz):
Mode: 9600bps FSK
Call sign: URSAMR
Status: Active

aabbcc
Your satellite tracking list
Your tracking list is empty




NASA's NSSDC Master Catalog

Two Line Element Set (TLE):
1 42776U 17036M   18226.90484604 +.00000600 +00000-0 +30179-4 0  9997
2 42776 097.3962 285.2444 0013090 213.3736 146.6676 15.20920060063427
Source of the keplerian elements: AFSPC